DW5301 Antwerp BE current weather conditions

sailwx.info

Wind from 157 at 0 knots gusting 2

Air temperature 7.8° C
Dewpoint 5.6° C

Last reported at 2018-Nov-14 04:00 UTC.
Time now 2018-Nov-14 04:24 UTC

Location: N 51°17' E 004°25'.
View on Google Maps.

See reports from other nearby stations

  
Tides and Currents Weather Stations Pressure Air Temp Water Temp Dewpoint Dewpoint Depression Visibility Wind Speed Wind Dir Waves Ship Positions
date/time (UTC)wind fromknots sea level pressurealtimeterstation pressurevisibilityair tempwater tempwave heightnotes
2018-Nov-14 04:10 163 0 gusting 2 7.8
2018-Nov-14 04:00 157 0 gusting 2 7.8
2018-Nov-14 03:30 190 0 gusting 2 8.3
2018-Nov-14 03:10 194 0 gusting 2 8.3
2018-Nov-14 03:00 194 0 gusting 4 8.3
2018-Nov-14 02:50 194 1 gusting 4 8.3
2018-Nov-14 02:40 190 0 gusting 4 8.9
2018-Nov-14 02:30 186 1 gusting 4 8.9
2018-Nov-14 02:20 189 1 gusting 4 8.9
2018-Nov-14 02:00 190 1 gusting 4 8.9
2018-Nov-14 01:50 186 1 gusting 2 8.9
2018-Nov-14 01:40 182 0 gusting 2 8.9
2018-Nov-14 01:20 191 1 gusting 4 9.4
2018-Nov-14 01:10 192 2 gusting 5 9.4
2018-Nov-14 01:00 186 1 gusting 4 9.4
2018-Nov-14 00:50 186 1 gusting 2 9.4
2018-Nov-14 00:40 186 1 gusting 4 9.4
2018-Nov-14 00:30 197 1 gusting 6 9.4
2018-Nov-14 00:20 190 1 gusting 6 9.4
2018-Nov-13 23:50 188 2 gusting 6 10.0
2018-Nov-13 23:10 195 1 gusting 6 10.6
2018-Nov-13 22:40 199 2 gusting 6 11.1
2018-Nov-13 22:30 201 3 gusting 7 11.1
2018-Nov-13 22:20 191 4 gusting 10 11.1
2018-Nov-13 22:10 201 5 gusting 10 11.1
2018-Nov-13 22:00 195 2 gusting 6 11.1
2018-Nov-13 21:30 202 2 gusting 7 11.1
2018-Nov-13 21:10 200 2 gusting 6 11.1
2018-Nov-13 21:00 196 3 gusting 6 11.1
2018-Nov-13 20:50 209 3 gusting 7 11.1
2018-Nov-13 20:40 200 2 gusting 6 10.6
2018-Nov-13 20:10 200 3 gusting 6 10.6
2018-Nov-13 19:50 200 2 gusting 6 10.6
2018-Nov-13 19:40 220 2 gusting 6 10.6
2018-Nov-13 19:20 203 4 gusting 10 10.6
2018-Nov-13 18:30 197 1 gusting 5 11.1
2018-Nov-13 18:20 195 3 gusting 6 11.1
2018-Nov-13 18:00 211 2 gusting 7 11.1
2018-Nov-13 17:30 198 1 gusting 7 11.7
2018-Nov-13 17:20 197 2 gusting 6 11.7
2018-Nov-13 17:10 210 3 gusting 8 11.7
2018-Nov-13 17:00 192 2 gusting 7 11.7
2018-Nov-13 16:40 197 2 gusting 6 12.2
2018-Nov-13 16:30 194 2 gusting 7 12.2
2018-Nov-13 16:20 201 4 gusting 8 12.2
2018-Nov-13 16:00 203 5 gusting 10 12.8
2018-Nov-13 15:50 205 5 gusting 10 12.8
2018-Nov-13 15:20 198 5 gusting 13 13.3
2018-Nov-13 15:10 196 5 gusting 10 13.3
2018-Nov-13 14:10 218 5 gusting 20 13.9
2018-Nov-13 13:50 213 6 gusting 14 14.4
2018-Nov-13 13:40 194 6 gusting 12 13.9
2018-Nov-13 13:20 209 5 gusting 15 13.9
2018-Nov-13 13:10 220 4 gusting 10 13.9
2018-Nov-13 12:50 204 4 gusting 10 13.9
2018-Nov-13 12:30 215 5 gusting 17 13.3
2018-Nov-13 12:20 198 6 gusting 14 13.3
2018-Nov-13 11:50 198 7 gusting 13 13.3
2018-Nov-13 11:40 209 5 gusting 10 13.3
2018-Nov-13 11:30 210 6 gusting 13 13.3
2018-Nov-13 11:10 211 6 gusting 15 12.8
2018-Nov-13 11:00 205 4 gusting 13 12.8
2018-Nov-13 10:40 217 6 gusting 13 12.2
2018-Nov-13 10:30 208 8 gusting 15 12.2
2018-Nov-13 10:10 214 6 gusting 13 11.7
2018-Nov-13 10:00 199 6 gusting 13 11.1
2018-Nov-13 09:50 203 6 gusting 13 11.1
2018-Nov-13 09:10 199 5 gusting 12 10.0
2018-Nov-13 09:00 204 5 gusting 14 10.0
2018-Nov-13 08:40 207 5 gusting 10 10.0
2018-Nov-13 08:30 205 5 gusting 12 10.0
2018-Nov-13 08:10 195 6 gusting 13 10.6
2018-Nov-13 07:30 205 4 gusting 10 10.6
2018-Nov-13 07:20 190 5 gusting 10 10.6
2018-Nov-13 07:00 194 5 gusting 10 10.6
2018-Nov-13 06:50 191 6 gusting 13 10.6
2018-Nov-13 06:30 197 5 gusting 14 10.6
2018-Nov-13 06:20 193 5 gusting 10 10.6
2018-Nov-13 05:50 195 6 gusting 12 10.6
2018-Nov-13 05:40 194 6 gusting 12 10.6
2018-Nov-13 05:30 207 6 gusting 12 10.6
2018-Nov-13 05:00 194 5 gusting 10 10.6
2018-Nov-13 04:50 195 2 gusting 6 10.6
2018-Nov-13 04:40 212 4 gusting 10 10.6
2018-Nov-13 04:30 192 6 gusting 12 10.6
2018-Nov-13 04:00 198 5 gusting 10 10.6
2018-Nov-13 03:20 193 4 gusting 10 10.6
2018-Nov-13 03:00 189 4 gusting 10 10.6
2018-Nov-13 02:50 185 5 gusting 8 10.6
2018-Nov-13 02:40 188 6 gusting 10 10.6
2018-Nov-13 02:30 188 6 gusting 10 10.6
2018-Nov-13 02:20 194 4 gusting 10 10.6
2018-Nov-13 02:10 190 6 gusting 12 10.6
2018-Nov-13 02:00 187 4 gusting 10 10.6
2018-Nov-13 01:50 191 3 gusting 10 10.6
2018-Nov-13 01:40 190 4 gusting 10 10.6
2018-Nov-13 01:20 186 5 gusting 10 10.0
2018-Nov-13 01:10 185 4 gusting 7 10.0
2018-Nov-13 00:40 176 1 gusting 6 10.0
2018-Nov-13 00:10 193 2 gusting 6 10.0
2018-Nov-13 00:00 205 2 gusting 6 10.0
2018-Nov-12 23:50 183 1 gusting 7 10.0
2018-Nov-12 23:30 196 1 gusting 6 10.0
2018-Nov-12 23:20 177 1 gusting 4 10.0
2018-Nov-12 23:10 182 2 gusting 7 10.0
2018-Nov-12 23:00 192 2 gusting 6 10.0
2018-Nov-12 22:40 165 2 gusting 6 10.0
2018-Nov-12 22:30 170 2 gusting 6 10.0
2018-Nov-12 22:00 186 2 gusting 6 10.0
2018-Nov-12 21:20 187 3 gusting 8 10.6
2018-Nov-12 21:00 187 2 gusting 7 10.6
2018-Nov-12 20:50 193 4 gusting 7 10.6
2018-Nov-12 20:40 184 4 gusting 8 10.6
2018-Nov-12 20:30 189 4 gusting 8 10.6
2018-Nov-12 20:20 189 2 gusting 8 10.6
2018-Nov-12 19:30 192 2 gusting 10 10.0
2018-Nov-12 19:20 188 3 gusting 10 10.0
2018-Nov-12 19:00 191 2 gusting 6 10.6
2018-Nov-12 18:20 187 3 gusting 7 10.6
2018-Nov-12 17:50 189 2 gusting 7 10.6
2018-Nov-12 17:30 170 1 gusting 7 10.6
2018-Nov-12 17:10 199 1 gusting 5 10.6
2018-Nov-12 17:00 197 1 gusting 4 10.6
2018-Nov-12 16:50 192 0 gusting 2 10.6
2018-Nov-12 16:20 191 1 gusting 6 11.1
2018-Nov-12 15:50 196 2 gusting 4 11.1
2018-Nov-12 15:30 188 4 gusting 6 11.1
2018-Nov-12 15:20 195 2 gusting 6 11.1
2018-Nov-12 14:50 195 2 gusting 5 11.7
2018-Nov-12 14:40 193 2 gusting 5 11.7
2018-Nov-12 14:30 202 2 gusting 5 11.7
2018-Nov-12 13:50 198 3 gusting 6 11.7
2018-Nov-12 13:20 209 0 gusting 2 11.7
2018-Nov-12 13:00 197 2 gusting 6 11.1
2018-Nov-12 12:50 193 1 gusting 2 11.1
2018-Nov-12 12:20 205 11.1
2018-Nov-12 12:10 207 0 gusting 2 11.1
2018-Nov-12 12:00 199 0 gusting 4 11.1
2018-Nov-12 11:50 199 1 gusting 4 11.1
2018-Nov-12 11:30 251 0 gusting 2 11.1
2018-Nov-12 11:20 177 11.1
2018-Nov-12 11:10 176 0 gusting 1 11.1
2018-Nov-12 10:50 286 10.6
2018-Nov-12 10:40 262 10.6
2018-Nov-12 10:30 262 0 gusting 1 10.6
2018-Nov-12 10:20 263 10.6
2018-Nov-12 10:10 263 10.6
2018-Nov-12 10:00 262 10.6
2018-Nov-12 09:50 291 0 gusting 2 11.1
2018-Nov-12 09:30 170 11.1
2018-Nov-12 08:30 170 10.6
2018-Nov-12 08:20 170 10.6
2018-Nov-12 08:00 170 10.6
2018-Nov-12 07:50 170 10.6
2018-Nov-12 07:10 170 10.6
2018-Nov-12 07:00 170 10.6
2018-Nov-12 06:50 170 10.6
2018-Nov-12 06:40 170 10.6
2018-Nov-12 06:20 170 10.6
2018-Nov-12 06:10 170 10.6
2018-Nov-12 06:00 170 10.6
2018-Nov-12 05:50 170 10.6
2018-Nov-12 05:40 170 10.6
2018-Nov-12 05:30 170 0 gusting 2 10.6
2018-Nov-12 05:20 170 0 gusting 2 10.6
2018-Nov-12 05:10 171 10.6
2018-Nov-12 04:50 171 10.6
2018-Nov-12 04:20 171 10.6
2018-Nov-12 04:10 171 10.6
2018-Nov-12 04:00 171 10.6